Flag for Angola Weather past 2 weeks in Lubango, Angola

Now
73 °F

Mild.


Feels Like: 77 °F
Forecast: 55 / 77 °F
Wind: 1 mph from North

Location: Ondangwa

Current Time: Sep 21, 2014 at 2:13:03 AM

Latest Report: Sep 21, 2014 at 1:00 AM


Visibility: N/A

Pressure: 30.01 "Hg

Humidity: 31%

Dew point: 41 °F

Location of LubangoLocation

Historic Weather in Lubango — Graph

°F

Lubango temperature yesterday

Maximum temperature yesterday: 97 °F (at 2:00 PM)
Minimum temperature yesterday: 63 °F (at 6:00 AM)
Average temperature yesterday: 79 °F

Past Weeks' High & Low Weather Summary

 TemperatureHumidityPressure
High100 °F (Sep 15, 2:00 PM)69% (Sep 14, 6:00 AM)30.21 "Hg (Sep 14, 6:00 AM)
Low55 °F (Sep 6, 6:00 AM)7% (Sep 10, 3:00 PM)29.83 "Hg (Sep 17, 3:00 PM)
Average78 °F22%30.02 "Hg
* Reported Sep 6 1:00 AM — Sep 21 1:00 AM, Lubango, Weather by CustomWeather, © 2014

Note: Actual official high and low records may vary slightly from our data, if they occured in-between our weather recording intervals... More about our weather records

Advertising

Lubango weather history for previous 24 hours

 ConditionsComfort  
Time TempWeatherWind HumidityBarometerVisibility
1:00 AM
Sep 21
73 °FMild.1 mph31%30.01 "HgN/A
12:00 AM75 °FMild.3 mph29%30.01 "HgN/A
11:00 PM
Sep 20
77 °FPleasantly warm.3 mph28%30.04 "HgN/A
10:00 PM81 °FPleasantly warm.5 mph21%30.04 "HgN/A
9:00 PM84 °FPleasantly warm.1 mph19%30.01 "HgN/A
8:00 PM84 °FPleasantly warm.3 mph19%30.01 "HgN/A
7:00 PM86 °FPassing clouds.8 mph17%30.01 "HgN/A
6:00 PM86 °FPleasantly warm.14 mph19%29.98 "HgN/A
2:00 PM97 °FExtremely hot.5 mph13%29.98 "HgN/A
1:00 PM93 °FSunny.7 mph14%30.01 "Hg10 mi
12:00 PM91 °FSunny.9 mph16%30.01 "Hg10 mi
11:00 AM90 °FSunny.13 mph16%30.07 "Hg10 mi
10:00 AM86 °FSunny.10 mph18%30.07 "Hg10 mi
9:00 AM82 °FPleasantly warm.10 mph19%30.09 "HgN/A
8:00 AM75 °FSunny.5 mph25%30.09 "Hg10 mi
7:00 AM68 °FSunny.No wind26%30.07 "Hg10 mi
6:00 AM63 °FClear.3 mph27%30.04 "Hg10 mi
5:00 AM64 °FMild.3 mph24%30.04 "HgN/A
4:00 AM66 °FMild.5 mph22%30.01 "HgN/A
3:00 AM70 °FMild.9 mph21%29.98 "HgN/A
2:00 AM70 °FMild.6 mph20%30.01 "HgN/A
Weather by CustomWeather, © 2014

See weather overviewHow to use our weather pages